| time (UTC) | temp C | wind direction | speed KPH | gust KPH | rain 1hr cm | rain 24hr cm | rain mn cm | humidity % | barometer mb |
| 20260508121611 | 18 | 124 | 9.7 | 20.9 | 0.00 | 0.00 | 0.00 | 71 | 1013.1 |
| 20260508120054 | 17 | 158 | 14.5 | 22.5 | 0.00 | 0.00 | 0.00 | 71 | 1013.4 |
| 20260508114552 | 17 | 198 | 9.7 | 17.7 | 0.00 | 0.00 | 0.00 | 71 | 1013.4 |
| 20260508113104 | 17 | 198 | 8.0 | 17.7 | 0.00 | 0.00 | 0.00 | 71 | 1013.5 |
| 20260508111549 | 17 | 198 | 11.3 | 20.9 | 0.00 | 0.00 | 0.00 | 71 | 1013.7 |
| 20260508110047 | 17 | 198 | 8.0 | 19.3 | 0.00 | 0.00 | 0.00 | 71 | 1013.6 |
| 20260508104547 | 17 | 198 | 9.7 | 20.9 | 0.00 | 0.00 | 0.00 | 71 | 1013.6 |
| 20260508103050 | 17 | 198 | 9.7 | 17.7 | 0.00 | 0.00 | 0.00 | 71 | 1013.7 |
| 20260508101549 | 17 | 198 | 6.4 | 17.7 | 0.00 | 0.00 | 0.00 | 71 | 1013.5 |
| 20260508100044 | 17 | 198 | 6.4 | 12.9 | 0.00 | 0.00 | 0.00 | 71 | 1013.5 |
| 20260508094548 | 17 | 198 | 6.4 | 17.7 | 0.00 | 0.00 | 0.00 | 71 | 1013.4 |
| 20260508093055 | 17 | 198 | 4.8 | 12.9 | 0.00 | 0.00 | 0.00 | 71 | 1013.4 |
| 20260508091555 | 16 | 198 | 8.0 | 12.9 | 0.00 | 0.00 | 0.00 | 71 | 1013.3 |
| 20260508090059 | 16 | 198 | 6.4 | 14.5 | 0.00 | 0.00 | 0.00 | 71 | 1013.5 |
| 20260508084545 | 16 | 198 | 3.2 | 11.3 | 0.00 | 0.00 | 0.00 | 71 | 1013.6 |
| 20260508083045 | 16 | 198 | 1.6 | 11.3 | 0.00 | 0.00 | 0.00 | 71 | 1013.9 |
| 20260508081549 | 16 | 198 | 4.8 | 9.7 | 0.00 | 0.00 | 0.00 | 72 | 1013.9 |
| 20260508080051 | 16 | 198 | 1.6 | 8.0 | 0.00 | 0.00 | 0.00 | 72 | 1013.7 |
| 20260508074548 | 16 | 0 | 4.8 | 8.0 | 0.00 | 0.00 | 0.00 | 72 | 1013.6 |
| 20260508073048 | 16 | 198 | 1.6 | 4.8 | 0.00 | 0.00 | 0.00 | 73 | 1013.7 |
| 20260508071555 | 15 | 0 | 0.0 | 1.6 | 0.00 | 0.00 | 0.00 | 73 | 1013.4 |
| 20260508070056 | 14 | 0 | 0.0 | 0.0 | 0.00 | 0.00 | 0.00 | 72 | 1013.3 |
| 20260508064550 | 12 | 0 | 0.0 | 0.0 | 0.00 | 0.00 | 0.00 | 72 | 1013.2 |
| 20260508063043 | 12 | 0 | 0.0 | 0.0 | 0.00 | 0.00 | 0.00 | 71 | 1012.9 |
| 20260508061547 | 11 | 0 | 0.0 | 0.0 | 0.00 | 0.00 | 0.00 | 71 | 1012.8 |
| 20260508060052 | 11 | 0 | 0.0 | 0.0 | 0.00 | 0.00 | 0.00 | 70 | 1012.8 |
| 20260508054551 | 10 | 0 | 0.0 | 0.0 | 0.00 | 0.00 | 0.00 | 70 | 1012.5 |
| 20260508053052 | 11 | 0 | 0.0 | 0.0 | 0.00 | 0.00 | 0.00 | 69 | 1012.3 |
| 20260508051547 | 11 | 0 | 0.0 | 1.6 | 0.00 | 0.00 | 0.00 | 69 | 1012.4 |
| 20260508050047 | 11 | 198 | 1.6 | 3.2 | 0.00 | 0.00 | 0.00 | 69 | 1012.4 |
| 20260508044551 | 11 | 198 | 0.0 | 1.6 | 0.00 | 0.00 | 0.00 | 68 | 1012.4 |
| 20260508043050 | 11 | 198 | 6.4 | 8.0 | 0.00 | 0.00 | 0.00 | 68 | 1011.9 |
| 20260508041548 | 11 | 198 | 1.6 | 3.2 | 0.00 | 0.00 | 0.00 | 68 | 1012.5 |
| 20260508040048 | 12 | 198 | 1.6 | 3.2 | 0.00 | 0.00 | 0.00 | 67 | 1012.7 |
| 20260508034545 | 12 | 198 | 1.6 | 3.2 | 0.00 | 0.00 | 0.00 | 67 | 1012.5 |
| 20260508033109 | 13 | 198 | 1.6 | 1.6 | 0.00 | 0.00 | 0.00 | 67 | 1012.4 |
| 20260508031545 | 13 | 198 | 0.0 | 1.6 | 0.00 | 0.00 | 0.00 | 67 | 1012.3 |
| 20260508030101 | 13 | 0 | 0.0 | 3.2 | 0.00 | 0.00 | 0.00 | 67 | 1012.1 |
| 20260508024607 | 13 | 198 | 0.0 | 1.6 | 0.00 | 0.00 | 0.00 | 67 | 1012.0 |
| 20260508023045 | 13 | 0 | 0.0 | 3.2 | 0.00 | 0.00 | 0.00 | 67 | 1012.0 |
| 20260508021544 | 13 | 198 | 4.8 | 8.0 | 0.00 | 0.00 | 0.00 | 66 | 1011.5 |
| 20260508020103 | 13 | 198 | 1.6 | 4.8 | 0.00 | 0.00 | 0.00 | 66 | 1012.2 |
| 20260508014555 | 13 | 198 | 3.2 | 6.4 | 0.00 | 0.00 | 0.00 | 66 | 1012.7 |
| 20260508013047 | 13 | 198 | 4.8 | 9.7 | 0.00 | 0.00 | 0.00 | 66 | 1013.0 |
| 20260508011547 | 14 | 198 | 4.8 | 8.0 | 0.00 | 0.00 | 0.00 | 65 | 1012.9 |
| 20260508010044 | 14 | 198 | 0.0 | 1.6 | 0.00 | 0.00 | 0.00 | 65 | 1012.5 |
| 20260508004544 | 14 | 0 | 0.0 | 6.4 | 0.00 | 0.00 | 0.00 | 65 | 1012.7 |
| 20260508003050 | 14 | 0 | 0.0 | 3.2 | 0.00 | 0.00 | 0.00 | 65 | 1013.2 |
| 20260508001551 | 14 | 198 | 3.2 | 8.0 | 0.00 | 0.00 | 0.00 | 65 | 1012.9 |
| 20260508000043 | 14 | 198 | 1.6 | 3.2 | 0.00 | 0.00 | 0.00 | 64 | 1013.2 |
| 20260507234548 | 15 | 198 | 3.2 | 6.4 | 0.00 | 0.00 | 0.00 | 64 | 1013.1 |
| 20260507233044 | 15 | 198 | 1.6 | 8.0 | 0.00 | 0.00 | 0.00 | 64 | 1013.1 |
| 20260507231546 | 15 | 198 | 3.2 | 4.8 | 0.00 | 0.00 | 0.00 | 64 | 1012.8 |
| 20260507230051 | 15 | 198 | 1.6 | 4.8 | 0.00 | 0.00 | 0.00 | 64 | 1012.8 |
| 20260507224545 | 15 | 198 | 1.6 | 4.8 | 0.00 | 0.00 | 0.00 | 64 | 1013.3 |
| 20260507223043 | 15 | 198 | 6.4 | 9.7 | 0.00 | 0.00 | 0.00 | 64 | 1013.7 |
| 20260507221548 | 16 | 198 | 3.2 | 4.8 | 0.00 | 0.00 | 0.00 | 64 | 1013.3 |
| 20260507220051 | 16 | 198 | 1.6 | 3.2 | 0.00 | 0.00 | 0.00 | 64 | 1013.5 |
| 20260507214547 | 16 | 198 | 0.0 | 4.8 | 0.00 | 0.00 | 0.00 | 64 | 1013.4 |
| 20260507213053 | 16 | 198 | 0.0 | 4.8 | 0.00 | 0.00 | 0.00 | 64 | 1013.4 |
| 20260507211554 | 16 | 198 | 1.6 | 3.2 | 0.00 | 0.00 | 0.00 | 64 | 1013.2 |
| 20260507210050 | 16 | 198 | 3.2 | 6.4 | 0.00 | 0.00 | 0.00 | 64 | 1013.2 |
| 20260507204548 | 16 | 198 | 1.6 | 6.4 | 0.00 | 0.00 | 0.00 | 64 | 1013.0 |
| 20260507203044 | 17 | 198 | 3.2 | 11.3 | 0.00 | 0.00 | 0.00 | 64 | 1012.9 |
| 20260507201552 | 17 | 198 | 4.8 | 9.7 | 0.00 | 0.00 | 0.00 | 64 | 1012.9 |
| 20260507200046 | 17 | 198 | 4.8 | 11.3 | 0.00 | 0.00 | 0.00 | 64 | 1012.7 |
| 20260507194548 | 17 | 198 | 6.4 | 14.5 | 0.00 | 0.00 | 0.00 | 63 | 1012.5 |
| 20260507193049 | 17 | 198 | 8.0 | 14.5 | 0.00 | 0.00 | 0.00 | 63 | 1012.3 |
| 20260507191546 | 17 | 198 | 9.7 | 19.3 | 0.00 | 0.00 | 0.00 | 63 | 1012.1 |
| 20260507190044 | 17 | 198 | 9.7 | 20.9 | 0.00 | 0.00 | 0.00 | 62 | 1012.0 |
| 20260507184549 | 17 | 199 | 6.4 | 16.1 | 0.00 | 0.00 | 0.00 | 62 | 1011.7 |
| 20260507183055 | 18 | 199 | 8.0 | 19.3 | 0.00 | 0.00 | 0.00 | 62 | 1011.5 |
| 20260507181546 | 18 | 200 | 6.4 | 14.5 | 0.00 | 0.00 | 0.00 | 62 | 1011.2 |
| 20260507180055 | 19 | 200 | 6.4 | 14.5 | 0.00 | 0.00 | 0.00 | 62 | 1011.3 |
| 20260507174546 | 20 | 200 | 8.0 | 16.1 | 0.00 | 0.00 | 0.00 | 63 | 1011.2 |
| 20260507173056 | 20 | 200 | 6.4 | 14.5 | 0.00 | 0.00 | 0.00 | 63 | 1011.3 |
| 20260507171552 | 20 | 200 | 9.7 | 24.1 | 0.00 | 0.00 | 0.00 | 63 | 1011.4 |
| 20260507170055 | 20 | 200 | 12.9 | 20.9 | 0.00 | 0.00 | 0.00 | 63 | 1011.4 |
| 20260507164544 | 20 | 200 | 16.1 | 25.7 | 0.00 | 0.00 | 0.00 | 63 | 1011.5 |
| 20260507163048 | 19 | 195 | 16.1 | 24.1 | 0.00 | 0.00 | 0.00 | 63 | 1011.5 |
| 20260507161551 | 20 | 181 | 12.9 | 27.4 | 0.00 | 0.00 | 0.00 | 63 | 1011.5 |
| 20260507160053 | 20 | 177 | 16.1 | 30.6 | 0.00 | 0.00 | 0.00 | 63 | 1011.4 |
| 20260507154548 | 20 | 182 | 14.5 | 32.2 | 0.00 | 0.00 | 0.00 | 63 | 1011.4 |
| 20260507153102 | 20 | 167 | 12.9 | 24.1 | 0.00 | 0.00 | 0.00 | 63 | 1011.4 |
| 20260507151542 | 20 | 159 | 11.3 | 22.5 | 0.00 | 0.00 | 0.00 | 63 | 1011.6 |
| 20260507150053 | 20 | 151 | 14.5 | 24.1 | 0.00 | 0.00 | 0.00 | 63 | 1011.7 |
| 20260507144545 | 20 | 153 | 12.9 | 20.9 | 0.00 | 0.00 | 0.00 | 63 | 1011.9 |
| 20260507143057 | 20 | 153 | 9.7 | 19.3 | 0.00 | 0.00 | 0.00 | 63 | 1011.9 |
| 20260507141548 | 20 | 153 | 12.9 | 17.7 | 0.00 | 0.00 | 0.00 | 63 | 1012.1 |
| 20260507140046 | 20 | 151 | 8.0 | 20.9 | 0.00 | 0.00 | 0.00 | 63 | 1012.0 |
| 20260507134541 | 20 | 150 | 12.9 | 20.9 | 0.00 | 0.00 | 0.00 | 63 | 1012.3 |
| 20260507133049 | 20 | 150 | 12.9 | 22.5 | 0.00 | 0.00 | 0.00 | 64 | 1012.3 |
| 20260507131549 | 20 | 148 | 11.3 | 19.3 | 0.00 | 0.00 | 0.00 | 64 | 1012.4 |
| 20260507130100 | 20 | 147 | 9.7 | 20.9 | 0.00 | 0.00 | 0.00 | 64 | 1012.6 |
| 20260507124552 | 20 | 146 | 11.3 | 22.5 | 0.00 | 0.00 | 0.00 | 64 | 1012.5 |
| 20260507123049 | 20 | 145 | 8.0 | 22.5 | 0.00 | 0.00 | 0.00 | 65 | 1012.9 |